GW7039 Weather Reports


time (UTC)temp
F
wind
direction
speed
knots
gust
knots
rain 1hr
in
rain 24hr
in
rain mn
in
humidity
%
barometer
mb
20260504043009 57 192 3.5 3.5 0.00 0.00 0.00 69 1006.8
20260504042506 57 151 1.7 5.2 0.00 0.00 0.00 68 1006.7
20260504042003 57 191 1.7 5.2 0.00 0.00 0.00 67 1006.9
20260504041459 58 147 4.3 6.1 0.00 0.00 0.00 66 1006.7
20260504040954 58 175 1.7 6.1 0.00 0.00 0.00 66 1006.6
20260504040453 58 124 1.7 7.0 0.00 0.00 0.00 66 1006.7
20260504035948 58 152 2.6 5.2 0.00 0.00 0.00 65 1006.7
20260504035446 58 166 4.3 7.0 0.00 0.00 0.00 65 1006.6
20260504034942 59 167 2.6 3.5 0.00 0.00 0.00 65 1006.7
20260504034440 59 167 3.5 6.1 0.00 0.00 0.00 64 1006.6
20260504033937 59 149 3.5 6.1 0.00 0.00 0.00 64 1006.7
20260504033435 59 142 4.3 5.2 0.00 0.00 0.00 63 1006.9
20260504032932 59 158 3.5 5.2 0.00 0.00 0.00 63 1007.1
20260504032428 59 152 3.5 5.2 0.00 0.00 0.00 63 1007.1
20260504031925 59 193 3.5 5.2 0.00 0.00 0.00 63 1007.2
20260504031422 59 177 1.7 2.6 0.00 0.00 0.00 64 1007.2
20260504030919 59 158 2.6 3.5 0.00 0.00 0.00 63 1007.2
20260504030416 59 149 1.7 2.6 0.00 0.00 0.00 63 1007.3
20260504025912 60 174 3.5 5.2 0.00 0.00 0.00 62 1007.2
20260504025409 60 164 1.7 3.5 0.00 0.00 0.00 62 1007.2
20260504024906 60 172 0.9 3.5 0.00 0.00 0.00 62 1007.5
20260504024403 60 145 1.7 2.6 0.00 0.00 0.00 62 1007.3
20260504023900 60 157 3.5 6.1 0.00 0.00 0.00 61 1007.4
20260504023356 60 155 1.7 2.6 0.00 0.00 0.00 61 1007.2
20260504022851 60 138 0.9 3.5 0.00 0.00 0.00 61 1007.2
20260504022349 61 150 1.7 2.6 0.00 0.00 0.00 61 1007.3
20260504021845 61 134 1.7 7.0 0.00 0.00 0.00 60 1007.2
20260504021342 61 182 2.6 5.2 0.00 0.00 0.00 59 1007.2
20260504020839 62 185 2.6 2.6 0.00 0.00 0.00 59 1007.2
20260504020336 62 142 0.9 2.6 0.00 0.00 0.00 59 1006.9
20260504015832 62 176 3.5 5.2 0.00 0.00 0.00 58 1006.8
20260504015328 62 156 1.7 3.5 0.00 0.00 0.00 57 1006.8
20260504014825 62 169 1.7 5.2 0.00 0.00 0.00 57 1006.8
20260504014320 62 184 2.6 5.2 0.00 0.00 0.00 57 1006.7
20260504013819 63 155 1.7 5.2 0.00 0.00 0.00 57 1006.5
20260504013316 63 171 3.5 6.1 0.00 0.00 0.00 56 1006.7
20260504012813 63 176 3.5 3.5 0.00 0.00 0.00 56 1006.7
20260504012311 63 182 3.5 7.0 0.00 0.00 0.00 55 1006.6
20260504011808 64 146 5.2 7.0 0.00 0.00 0.00 55 1006.5
20260504011304 64 191 4.3 7.8 0.00 0.00 0.00 54 1006.4
20260504010800 64 201 4.3 7.0 0.00 0.00 0.00 53 1006.4
20260504010255 64 178 3.5 5.2 0.00 0.00 0.00 53 1006.4
20260504005753 64 183 3.5 3.5 0.00 0.00 0.00 53 1006.4
20260504005249 65 146 3.5 6.1 0.00 0.00 0.00 51 1006.5
20260504004747 65 184 2.6 5.2 0.00 0.00 0.00 51 1006.4
20260504004244 66 156 4.3 7.0 0.00 0.00 0.00 50 1006.4
20260504003741 66 136 2.6 5.2 0.00 0.00 0.00 50 1006.5
20260504003238 66 225 2.6 5.2 0.00 0.00 0.00 50 1006.4
20260504002734 67 179 4.3 7.0 0.00 0.00 0.00 49 1006.5
20260504002231 67 168 3.5 11.3 0.00 0.00 0.00 48 1006.5
20260504001729 67 212 3.5 7.0 0.00 0.00 0.00 48 1006.3
20260504001226 67 170 3.5 6.1 0.00 0.00 0.00 48 1006.5
20260504000722 68 168 3.5 6.1 0.00 0.00 0.00 47 1006.6
20260504000219 68 196 3.5 5.2 0.00 0.00 0.00 46 1006.5
20260503235718 68 184 2.6 7.0 0.00 0.00 0.00 46 1006.3
20260503235214 68 192 5.2 9.6 0.00 0.00 0.00 46 1006.5
20260503234712 68 233 6.1 9.6 0.00 0.00 0.00 45 1006.4
20260503234210 68 218 7.8 13.0 0.00 0.00 0.00 45 1006.4
20260503233707 68 244 10.4 13.0 0.00 0.00 0.00 44 1006.7
20260503233203 68 168 4.3 7.0 0.00 0.00 0.00 44 1006.6
20260503232700 68 210 9.6 13.9 0.00 0.00 0.00 44 1006.6
20260503232157 68 180 3.5 9.6 0.00 0.00 0.00 44 1006.5
20260503231655 69 200 7.0 12.2 0.00 0.00 0.00 44 1006.6
20260503231151 69 186 7.0 13.0 0.00 0.00 0.00 43 1006.7
20260503230648 69 186 6.1 12.2 0.00 0.00 0.00 44 1006.5
20260503230145 69 212 10.4 13.9 0.00 0.00 0.00 43 1006.6
20260503225642 69 207 5.2 7.8 0.00 0.00 0.00 44 1006.8
20260503225142 69 211 7.8 12.2 0.00 0.00 0.00 45 1006.7
20260503224640 69 190 5.2 7.8 0.00 0.00 0.00 44 1006.7
20260503224137 68 210 7.0 7.8 0.00 0.00 0.00 44 1006.8
20260503223635 68 155 12.2 15.6 0.00 0.00 0.00 44 1006.8
20260503223131 68 202 8.7 11.3 0.00 0.00 0.00 44 1006.8
20260503222629 68 149 8.7 13.0 0.00 0.00 0.00 43 1007.2
20260503222126 68 184 7.8 13.9 0.00 0.00 0.00 44 1007.1
20260503221625 68 146 5.2 8.7 0.00 0.00 0.00 44 1007.1
20260503221122 68 168 6.1 9.6 0.00 0.00 0.00 43 1007.3
20260503220618 68 196 3.5 13.9 0.00 0.00 0.00 43 1007.1
20260503220115 68 179 8.7 12.2 0.00 0.00 0.00 43 1007.2
20260503215612 68 171 6.1 9.6 0.00 0.00 0.00 43 1007.3
20260503215109 67 171 6.1 12.2 0.00 0.00 0.00 45 1007.4
20260503214607 67 181 9.6 18.2 0.00 0.00 0.00 44 1007.4
20260503214103 67 188 9.6 13.0 0.00 0.00 0.00 45 1007.5
20260503213602 67 186 11.3 13.0 0.00 0.00 0.00 43 1007.6
20260503213058 66 149 7.8 14.8 0.00 0.00 0.00 44 1007.7
20260503212556 65 203 10.4 13.9 0.00 0.00 0.00 45 1007.8
20260503212053 66 192 7.8 18.2 0.00 0.00 0.00 44 1007.7
20260503211550 66 231 12.2 18.2 0.00 0.00 0.00 43 1008.1
20260503211045 66 238 7.8 13.0 0.00 0.00 0.00 44 1008.0
20260503210542 68 168 10.4 15.6 0.00 0.00 0.00 42 1008.1
20260503210038 67 145 8.7 13.9 0.00 0.00 0.00 43 1008.2
20260503205535 66 210 7.8 19.1 0.00 0.00 0.00 43 1008.1
20260503205032 66 163 9.6 20.0 0.00 0.00 0.00 42 1008.5
20260503204528 66 189 8.7 26.9 0.00 0.00 0.00 42 1008.6
20260503204025 66 147 11.3 15.6 0.00 0.00 0.00 41 1008.6
20260503203523 65 170 9.6 18.2 0.00 0.00 0.00 41 1008.7
20260503203020 64 179 12.2 14.8 0.00 0.00 0.00 43 1008.8
20260503202517 66 162 12.2 14.8 0.00 0.00 0.00 43 1008.8
20260503202015 65 152 8.7 16.5 0.00 0.00 0.00 42 1008.9
20260503201514 67 156 11.3 20.0 0.00 0.00 0.00 41 1009.0
20260503201010 66 151 6.1 9.6 0.00 0.00 0.00 44 1009.1
20260503200506 66 176 9.6 14.8 0.00 0.00 0.00 43 1009.2
20260503200003 64 163 10.4 16.5 0.00 0.00 0.00 43 1009.1
20260503195500 64 166 9.6 16.5 0.00 0.00 0.00 45 1009.0
20260503194956 63 191 10.4 20.9 0.00 0.00 0.00 47 1009.4
20260503194454 64 157 17.4 20.9 0.00 0.00 0.00 47 1009.3
20260503193949 63 201 17.4 21.7 0.00 0.00 0.00 48 1009.5
20260503193445 63 192 11.3 19.1 0.00 0.00 0.00 50 1009.7
20260503192940 63 170 7.0 13.9 0.00 0.00 0.00 51 1009.7
20260503192437 62 160 10.4 15.6 0.00 0.00 0.00 54 1009.5
20260503191933 61 206 7.8 15.6 0.00 0.00 0.00 57 1009.7
20260503191431 61 199 9.6 20.9 0.00 0.00 0.00 58 1009.6
20260503190927 61 191 13.0 18.2 0.00 0.00 0.00 56 1009.8
20260503190424 60 142 12.2 19.1 0.00 0.00 0.00 56 1009.9
20260503185921 60 177 8.7 19.1 0.00 0.00 0.00 57 1010.0
20260503185418 59 202 8.7 14.8 0.00 0.00 0.00 58 1010.2
20260503184916 59 184 12.2 18.2 0.00 0.00 0.00 59 1010.1
20260503184414 59 155 8.7 18.2 0.00 0.00 0.00 61 1010.2
20260503183910 58 177 7.0 14.8 0.00 0.00 0.00 62 1010.4
20260503183407 58 170 7.8 23.5 0.00 0.00 0.00 60 1010.5
20260503182904 57 163 7.0 16.5 0.00 0.00 0.00 61 1010.5
20260503182403 57 152 8.7 16.5 0.00 0.00 0.00 60 1010.7
20260503181859 56 162 8.7 19.1 0.00 0.00 0.00 63 1010.7
20260503181356 56 169 5.2 20.0 0.00 0.00 0.00 65 1010.9
20260503180853 56 159 8.7 13.9 0.00 0.00 0.00 64 1011.0
20260503180351 55 144 12.2 16.5 0.00 0.00 0.00 64 1010.9
20260503175847 55 144 7.0 16.5 0.00 0.00 0.00 65 1011.3
20260503175345 55 160 6.1 12.2 0.00 0.00 0.00 66 1011.3
20260503174840 54 159 7.8 12.2 0.00 0.00 0.00 69 1011.7
20260503174340 54 173 8.7 13.9 0.00 0.00 0.00 70 1011.7
20260503173839 53 174 7.0 13.0 0.00 0.00 0.00 70 1012.0
20260503173336 52 186 7.8 11.3 0.00 0.00 0.00 74 1012.4
20260503172833 52 149 7.0 13.0 0.00 0.00 0.00 75 1012.5
20260503172331 52 169 8.7 13.9 0.00 0.00 0.00 75 1012.7
20260503171832 52 184 7.8 13.9 0.00 0.00 0.00 77 1012.8
20260503171329 52 186 10.4 13.9 0.00 0.00 0.00 76 1013.2
20260503170826 52 160 13.0 15.6 0.00 0.00 0.00 77 1013.3
20260503170322 51 162 9.6 14.8 0.00 0.00 0.00 76 1013.4
20260503150715 54 220 10.4 13.9 0.00 0.00 0.00 59 1014.5
20260503150211 53 216 10.4 12.2 0.00 0.00 0.00 62 1014.4
20260503140135 51 172 3.5 11.3 0.00 0.00 0.00 61 1014.9
20260503131105 50 206 4.3 7.0 0.00 0.00 0.00 62 1015.0
20260503130602 49 183 5.2 9.6 0.00 0.00 0.00 62 1015.1
20260503110452 46 166 4.3 6.1 0.00 0.00 0.00 65 1014.9
20260503090344 44 180 2.6 5.2 0.00 0.00 0.00 63 1015.2
20260503081311 44 147 2.6 5.2 0.00 0.00 0.00 62 1015.6
20260503080807 44 172 2.6 3.5 0.00 0.00 0.00 63 1015.5
20260503080305 44 177 2.6 5.2 0.00 0.00 0.00 62 1015.6
20260503072741 44 156 1.7 3.5 0.00 0.00 0.00 64 1015.6
20260503072238 44 175 2.6 2.6 0.00 0.00 0.00 63 1015.6
20260503071734 43 145 1.7 1.7 0.00 0.00 0.00 64 1015.7
20260503071231 44 147 0.9 2.6 0.00 0.00 0.00 64 1015.7
20260503070728 44 136 2.6 2.6 0.00 0.00 0.00 63 1015.8
20260503070226 44 201 4.3 5.2 0.00 0.00 0.00 63 1015.9
20260503060151 45 168 1.7 3.5 0.00 0.00 0.00 60 1016.3
20260503054638 45 155 2.6 3.5 0.00 0.00 0.00 60 1016.5
20260503054135 45 160 1.7 2.6 0.00 0.00 0.00 60 1016.5
20260503053633 45 167 2.6 3.5 0.00 0.00 0.00 60 1016.5
20260503053132 45 164 1.7 2.6 0.00 0.00 0.00 60 1016.6
20260503052627 44 156 1.7 2.6 0.00 0.00 0.00 62 1016.7
20260503052124 45 186 1.7 2.6 0.00 0.00 0.00 63 1016.7
20260503051619 45 146 2.6 2.6 0.00 0.00 0.00 61 1016.7
20260503051117 45 144 0.9 2.6 0.00 0.00 0.00 62 1016.8
20260503050613 45 148 1.7 2.6 0.00 0.00 0.00 62 1016.8
20260503050110 45 159 1.7 3.5 0.00 0.00 0.00 62 1016.8
20260503045608 44 167 1.7 3.5 0.00 0.00 0.00 62 1017.0
20260503045105 44 168 1.7 2.6 0.00 0.00 0.00 63 1016.8
20260503044601 44 149 1.7 1.7 0.00 0.00 0.00 64 1016.9
20260503044059 44 149 0.9 1.7 0.00 0.00 0.00 64 1016.8
20260503043555 44 149 1.7 1.7 0.00 0.00 0.00 64 1017.0